EST,Max TemperatureF,Mean TemperatureF,Min TemperatureF,Max Dew PointF,MeanDew PointF,Min DewpointF,Max Humidity, Mean Humidity, Min Humidity, Max Sea Level PressureIn, Mean Sea Level PressureIn, Min Sea Level PressureIn, Max VisibilityMiles, Mean VisibilityMiles, Min VisibilityMiles, Max Wind SpeedMPH, Mean Wind SpeedMPH, Max Gust SpeedMPH,PrecipitationIn, CloudCover, Events, WindDirDegrees
2011-12-1,37,33,28,31,28,16,89,74,58,30.26,30.14,30.05,10,5,1,16,6,25,0.15,8,Snow,313
2011-12-2,31,25,19,19,14,7,75,62,49,30.40,30.35,30.24,10,10,10,16,7,22,T,5,,118
2011-12-3,39,33,26,38,31,19,92,82,72,30.35,30.12,29.96,10,3,0,14,7,22,0.28,8,Fog-Rain-Snow,140
2011-12-4,41,36,30,39,35,23,92,82,72,30.20,29.87,29.75,10,6,1,13,8,16,0.15,8,Rain,122
2011-12-5,30,26,21,23,20,15,81,75,68,30.37,30.31,30.22,10,10,9,12,6,18,T,8,,15
2011-12-6,24,18,12,18,13,7,84,73,62,30.35,30.23,30.04,10,10,10,12,6,16,0.00,7,,341
2011-12-7,31,25,18,25,19,13,84,67,50,30.02,29.84,29.75,10,7,1,16,7,23,0.04,7,Snow,250
2011-12-8,28,23,18,23,16,2,84,62,40,30.04,29.87,29.79,10,7,1,23,15,34,0.04,5,Snow,249
2011-12-9,24,18,12,5,3,2,67,52,36,30.19,30.12,30.04,10,10,10,20,13,27,0.00,1,,240
2011-12-10,26,19,11,19,7,-1,74,56,38,30.29,30.24,30.16,10,10,8,18,9,23,T,6,Snow,220
2011-12-11,43,35,26,32,26,18,82,72,62,30.23,30.15,30.08,10,10,7,21,10,30,0.00,5,,207
2011-12-12,40,37,34,36,32,28,100,88,75,30.31,30.26,30.18,10,5,0,16,6,21,0.25,7,Fog-Rain-Snow,225
2011-12-13,37,35,33,34,33,30,96,93,89,30.38,30.33,30.29,4,2,0,6,1,8,T,8,Fog-Rain,125
2011-12-14,38,37,35,37,35,33,100,93,85,30.31,29.99,29.59,9,2,0,12,6,16,0.26,8,Fog-Rain,115
2011-12-15,39,35,31,38,34,27,100,91,82,29.77,29.55,29.40,10,4,0,25,11,36,0.45,8,Fog-Rain-Snow,248
2011-12-16,35,24,13,31,16,1,92,75,57,30.34,30.17,29.80,10,10,6,18,10,25,T,7,Snow,332
2011-12-17,25,17,8,22,11,1,88,71,53,30.35,30.17,29.98,10,8,2,12,6,16,0.03,4,Snow,123
2011-12-18,36,30,23,29,23,19,88,79,69,30.06,29.93,29.61,10,10,9,14,7,20,T,8,Snow,190
2011-12-19,39,31,22,32,24,13,82,73,63,30.23,29.83,29.55,10,10,2,24,13,35,T,7,Rain-Snow,316
2011-12-20,30,25,20,21,17,14,77,68,58,30.25,30.07,29.80,10,10,10,20,7,25,0.00,8,,164
2011-12-21,39,32,25,27,24,21,88,69,50,29.81,29.71,29.61,10,10,8,10,4,13,0.00,4,,167
2011-12-22,36,25,14,31,20,4,89,75,61,30.24,30.04,29.82,10,9,2,21,11,30,0.01,7,Snow,303
2011-12-23,18,14,9,12,8,0,80,70,59,30.33,30.26,30.21,10,6,2,13,7,17,0.07,8,Snow,91
2011-12-24,32,25,17,27,21,12,88,83,77,30.29,30.14,29.88,10,7,1,15,8,22,0.03,8,Snow,131
2011-12-25,35,28,21,31,26,20,89,78,66,30.12,29.86,29.78,10,6,0,18,7,31,0.07,7,Fog-Snow,288
2011-12-26,40,35,30,29,26,22,78,69,59,30.12,29.89,29.63,10,10,10,25,10,34,0.00,5,,214
2011-12-27,40,23,6,34,22,-4,82,73,63,29.86,29.59,29.47,10,8,0,22,10,28,0.06,7,Fog-Rain-Snow,308
2011-12-28,13,5,-3,-2,-10,-17,66,52,38,30.09,30.02,29.88,10,10,10,16,6,23,0.00,1,,6
2011-12-29,22,16,9,18,12,-1,84,74,63,29.95,29.74,29.65,10,5,1,16,10,24,0.12,8,Snow,92
2011-12-30,27,24,21,25,20,16,92,85,77,29.81,29.77,29.71,10,7,1,15,7,22,0.02,8,Rain-Snow,92
2011-12-31,34,25,16,28,23,17,92,77,61,29.95,29.88,29.77,10,10,10,9,3,15,0.00,4,,106